Flag for U.S.A. Weather past 2 weeks in Worcester, Massachusetts, U.S.A.

Now
45 °F

Overcast.


Feels Like: 37 °F
Forecast: 37 / 56 °F
Wind: 20 mph from Northwest

Location: Worcester Regional Airport


UV Index: 5 (Moderate)

Visibility: 10 mi


Pressure: 29.61 "Hg

Humidity: 56%

Dew point: 30 °F

Location of WorcesterLocation

Historic Weather in Worcester

°F

Worcester temperature yesterday

Maximum temperature yesterday: 70 °F (at 1:54 PM)
Minimum temperature yesterday: 47 °F (at 4:54 AM)
Average temperature yesterday: 57 °F

Past Weeks' High & Low Weather Summary

 TemperatureHumidityPressure
High71 °F (Apr 14, 11:54 AM)100% (Apr 15, 8:01 AM)30.78 "Hg (Apr 15, 8:01 AM)
Low24 °F (Apr 17, 5:54 AM)11% (Apr 21, 2:54 PM)29.44 "Hg (Apr 23, 4:54 AM)
Average47 °F58%30.06 "Hg
* Reported Apr 8 8:54 PM — Apr 23 8:54 PM, Worcester, Weather by CustomWeather, © 2014

Note: Actual official high and low records may vary slightly from our data, if they occured in-between our weather recording intervals... More about our weather records

Advertising

Historic Weather Conditions — Data for Previous 24 hours

 ConditionsComfort  
Time TempWeatherWind HumidityBarometerVisibility
8:54 PM
Apr 23
45 °FOvercast.20 mph56%29.61 "Hg10 mi
7:54 PM46 °FOvercast.17 mph54%29.59 "Hg10 mi
6:54 PM47 °FMostly cloudy.14 mph54%29.56 "Hg10 mi
5:54 PM48 °FOvercast.17 mph54%29.54 "Hg10 mi
4:54 PM49 °FOvercast.20 mph55%29.51 "Hg10 mi
3:54 PM49 °FMostly cloudy.15 mph59%29.49 "Hg10 mi
2:54 PM47 °FMostly cloudy.16 mph77%29.49 "Hg10 mi
2:01 PM47 °FLight rain. Mostly cloudy.16 mph83%29.47 "Hg10 mi
12:54 PM45 °FLight rain. Cloudy.14 mph93%29.48 "Hg10 mi
11:54 AM45 °FLight rain. Fog.12 mph90%29.48 "Hg3 mi
10:54 AM46 °FLight rain. Fog.13 mph93%29.48 "Hg6 mi
9:54 AM45 °FLight rain. Fog.8 mph93%29.49 "Hg4 mi
8:54 AM47 °FPartly sunny.8 mph83%29.46 "Hg10 mi
7:54 AM47 °FOvercast.13 mph83%29.46 "Hg10 mi
6:54 AM47 °FScattered clouds.17 mph83%29.45 "Hg10 mi
5:54 AM48 °FPartly cloudy.16 mph86%29.46 "Hg10 mi
4:54 AM50 °FPartly cloudy.6 mph89%29.44 "Hg10 mi
3:54 AM51 °FOvercast.12 mph89%29.44 "Hg10 mi
2:54 AM51 °FOvercast.10 mph92%29.45 "Hg10 mi
1:54 AM51 °FOvercast.10 mph92%29.46 "Hg10 mi
12:54 AM51 °FPassing clouds.10 mph92%29.46 "Hg9 mi
11:54 PM
Apr 22
51 °FPassing clouds.10 mph96%29.48 "Hg10 mi
10:54 PM52 °FPassing clouds.10 mph93%29.49 "Hg10 mi
9:54 PM53 °FOvercast.8 mph86%29.51 "Hg10 mi
Weather by CustomWeather, © 2014

See weather overview